RH
113 109 107 103 100 99 94 91 89 82 76 70 66 64 58 51 47 44 42 42 41 40 37 35 34 33 33 32 32 35 43 47 46 45 49 54 55 56 58 58 57 54 50 50 52 52 55 60 62 59 57 58 59 58 57 57 57 58 59 58 55 51 47 44 42 40 41 43 45 47 49 50 51 53 54 56 58 57 57 56 58 61 61 61 62 62 63
108 108 107 104 103 99 96 103 104 92 85 81 75 71 64 54 51 48 44 45 48 47 44 42 39 36 34 33 35 44 55 57 55 58 63 69 70 68 68 69 66 60 58 59 60 60 61 63 61 58 58 58 56 55 56 58 60 63 63 59 53 50 48 46 47 48 50 49 49 50 50 51 54 56 58 61 62 61 59 59 61 63 63 64 64 64 65
109 109 106 102 100 90 86 100 103 88 83 88 83 74 68 60 54 53 52 53 54 52 49 45 41 38 36 36 42 55 66 67 64 63 65 66 66 64 66 68 66 64 66 69 70 68 64 60 57 55 56 56 56 58 59 61 63 64 61 56 53 52 51 51 53 53 52 51 52 52 54 56 59 60 63 65 65 63 61 60 62 63 63 63 64 66 68
110 107 97 91 93 85 78 88 94 78 68 77 79 73 70 65 58 56 58 59 56 52 49 44 40 39 37 38 46 56 63 68 68 69 71 69 67 67 68 69 68 67 68 68 67 64 59 56 55 56 59 60 61 62 64 66 68 65 61 58 55 55 55 56 55 55 54 55 56 57 59 61 63 66 69 70 67 64 62 61 62 63 63 65 68 72 73
105 102 89 81 88 90 83 83 86 74 65 75 83 79 71 64 59 60 60 58 53 48 45 42 39 38 38 42 54 63 68 73 72 72 76 77 75 72 70 70 69 67 66 67 66 62 60 61 64 66 69 71 73 73 72 71 70 66 61 57 56 58 60 60 59 58 59 60 61 63 65 67 69 72 73 73 70 66 63 64 67 68 71 75 79 79 77
104 103 95 83 83 95 102 97 89 78 71 75 79 76 68 59 57 60 59 56 53 47 46 45 41 42 45 51 63 74 81 84 80 76 78 79 77 73 69 65 63 62 65 67 67 66 67 71 75 77 79 82 82 78 73 70 67 63 61 61 63 65 64 62 62 62 64 66 68 70 71 72 74 77 78 77 75 72 72 75 79 82 85 87 87 83 78
105 105 103 92 85 97 110 105 93 87 84 81 78 77 73 63 59 60 59 58 57 54 52 48 44 49 59 67 74 77 80 84 83 81 81 79 75 72 68 66 65 66 70 73 76 77 78 79 83 86 89 89 84 77 73 71 67 64 64 65 65 64 63 65 67 69 72 74 74 75 76 77 80 82 83 83 83 84 85 87 90 93 93 91 88 82 77
105 103 102 96 90 98 107 103 94 93 95 94 91 89 86 79 71 66 66 63 61 61 58 49 44 49 59 69 75 75 78 83 83 81 81 78 74 73 73 73 74 76 79 81 82 81 82 86 92 94 93 87 81 76 73 70 66 64 64 65 65 66 69 72 75 77 78 79 79 80 81 82 85 86 87 89 93 96 95 93 95 96 93 90 87 81 77
104 101 98 90 86 95 105 106 101 97 94 92 87 83 82 80 73 65 61 58 58 61 58 47 40 40 43 49 59 76 95 99 86 75 70 69 72 74 74 76 79 83 86 86 85 85 90 97 99 96 91 83 76 72 68 65 64 64 66 68 69 72 75 78 81 82 83 83 83 82 82 82 84 86 89 95 99 100 99 98 97 94 91 89 86 81 78
99 94 90 85 86 96 104 106 105 101 95 88 84 83 83 81 75 67 60 57 59 61 56 46 38 35 35 37 52 86 111 102 79 64 59 64 75 78 77 78 78 80 83 85 89 93 96 98 95 90 83 76 70 66 64 64 66 69 73 75 75 78 81 83 84 83 82 81 80 79 78 80 84 89 97 101 101 102 102 101 97 93 92 90 85 81 81
96 87 84 85 91 99 106 107 104 98 92 87 86 89 88 83 76 68 62 61 62 58 52 46 38 32 32 40 64 99 104 77 56 56 64 77 89 86 81 78 76 77 83 87 91 93 91 88 83 77 72 69 67 67 68 71 74 78 81 82 83 86 87 85 83 81 79 78 78 78 80 85 91 97 103 104 102 102 103 100 96 94 92 88 84 83 86
97 87 85 86 90 97 105 108 102 94 91 91 90 91 91 85 76 68 63 61 59 53 46 40 35 31 32 39 61 88 88 66 56 65 79 91 93 86 82 81 82 85 87 86 85 82 78 76 73 71 72 73 75 76 77 79 83 86 87 87 89 91 89 86 84 83 82 82 82 85 90 96 101 103 103 102 101 102 102 99 95 91 87 85 85 88 93
100 96 95 94 96 101 105 105 102 101 102 101 98 96 94 86 74 66 63 59 53 47 42 37 34 33 33 37 50 68 80 79 75 76 82 85 84 85 90 92 92 90 84 80 78 76 75 76 78 80 83 84 85 85 85 88 91 91 90 90 92 92 90 89 89 88 86 85 85 88 93 97 102 105 105 103 103 103 103 99 92 86 83 84 90 96 101
101 100 102 102 102 104 104 103 104 107 108 105 103 100 92 81 71 64 60 54 48 45 43 40 36 34 38 48 57 62 71 77 76 76 80 83 85 92 96 94 91 88 86 87 88 87 88 90 93 95 95 94 93 91 90 92 91 90 90 91 91 90 89 89 87 84 81 80 80 81 82 85 93 101 104 105 104 103 100 94 87 84 86 92 99 101 101
102 102 103 103 104 105 106 107 108 108 105 102 102 99 88 78 71 63 56 51 48 49 49 46 43 43 47 53 54 54 62 73 76 77 80 83 85 87 86 85 88 91 95 98 100 101 101 102 104 104 100 97 96 94 93 94 93 93 95 94 93 93 92 90 86 85 86 87 85 82 80 82 88 97 104 106 104 100 97 91 87 88 94 101 103 100 97
103 105 102 100 103 105 106 107 108 106 104 103 102 97 86 77 70 62 55 52 52 53 55 52 51 53 54 52 49 50 59 70 75 76 76 77 79 81 82 86 92 94 93 96 101 104 104 105 108 106 100 98 97 95 94 94 94 96 98 97 97 96 93 90 90 93 96 96 94 91 87 85 90 98 105 106 103 100 96 91 89 94 101 103 100 97 95
101 101 98 94 98 102 105 106 106 105 105 104 99 92 82 75 69 61 55 54 53 53 54 54 54 57 58 55 53 52 55 60 67 73 76 77 80 83 84 86 89 89 88 90 94 97 98 103 107 102 97 95 92 88 87 85 84 86 86 88 90 91 90 90 93 98 101 101 102 101 95 92 98 104 107 106 103 98 93 92 96 102 104 101 98 98 98
101 103 101 99 100 105 108 108 105 102 101 99 93 86 78 72 67 62 58 57 56 56 56 57 58 60 60 58 58 60 62 68 76 83 87 86 84 82 79 78 78 78 79 81 85 89 95 101 102 97 92 89 85 84 85 84 83 83 82 84 86 87 88 92 97 103 106 107 110 108 101 98 103 107 110 109 102 94 93 98 103 103 101 101 101 102 100
99 102 104 103 104 106 106 106 102 99 98 95 89 82 76 71 68 66 64 63 62 61 62 62 61 63 66 67 68 70 73 77 82 86 87 83 77 73 73 75 76 76 80 85 91 96 99 99 95 91 89 87 86 87 89 89 88 88 87 88 90 89 92 98 104 109 110 111 113 110 103 101 104 106 108 106 98 94 98 103 102 101 101 104 104 102 95
97 99 101 103 104 104 103 103 102 100 98 94 87 80 76 73 71 70 69 70 69 69 69 69 70 73 77 79 78 75 73 75 77 76 75 73 72 73 75 79 80 80 81 83 85 87 89 90 90 89 89 89 90 90 90 89 90 90 90 90 91 95 101 107 110 110 109 111 112 109 105 105 106 103 100 99 99 100 102 101 101 102 104 104 100 91 79
95 97 100 103 105 105 104 104 103 100 96 92 86 81 78 76 76 77 77 78 80 81 81 80 80 83 87 88 84 76 71 71 71 70 70 70 70 70 70 70 69 68 68 68 71 79 87 93 97 98 99 100 99 94 91 90 92 93 93 90 92 100 107 110 110 107 107 110 111 108 105 105 104 101 98 99 101 102 101 101 104 104 103 98 86 72 62
96 99 103 104 104 105 105 105 103 99 96 93 88 85 83 84 85 85 85 85 87 90 90 88 88 89 88 86 81 75 71 70 69 68 69 68 66 64 64 63 63 65 68 75 83 93 102 106 107 107 107 106 101 95 93 95 98 98 94 90 93 103 109 108 106 106 108 110 109 105 103 103 103 101 100 100 101 102 103 104 103 99 92 81 69 63 65
102 104 104 103 103 105 105 104 102 100 99 99 97 95 94 95 95 95 94 94 94 94 94 92 91 91 88 83 79 77 74 73 70 69 68 67 65 65 67 70 75 80 86 94 100 104 106 108 110 109 105 99 94 91 93 97 100 98 92 90 96 106 110 109 108 109 109 108 104 102 102 104 104 103 101 102 103 103 103 100 95 87 78 70 68 73 82
103 103 102 102 104 104 103 103 102 102 102 103 103 102 101 101 102 102 102 103 102 100 99 97 94 91 88 84 80 77 75 75 74 73 72 73 74 77 82 87 91 95 99 104 107 106 107 109 109 104 97 91 88 88 90 93 94 92 90 93 101 108 111 111 110 109 108 105 103 102 102 102 104 105 105 104 100 98 96 92 84 77 72 73 80 88 94
101 103 104 104 104 103 102 102 103 103 104 105 104 101 98 97 99 102 103 104 105 104 103 101 97 92 87 82 78 75 75 78 80 80 81 84 87 91 94 95 96 98 102 105 107 107 107 104 98 92 89 87 86 88 90 90 88 88 92 98 105 109 110 110 108 106 105 103 103 102 101 103 106 106 101 94 90 91 91 85 80 80 85 90 96 100 103
101 103 104 103 102 103 103 103 104 103 102 102 103 102 98 95 98 99 99 99 101 102 103 104 103 100 97 93 92 90 88 87 85 84 85 88 90 92 94 96 97 99 99 98 97 96 95 91 86 84 85 85 84 85 86 86 86 90 97 104 109 110 109 107 104 102 102 103 103 103 101 99 96 90 84 81 85 91 93 91 92 100 105 105 104 105 108
104 105 106 104 103 103 103 102 103 103 102 102 104 105 103 100 100 101 99 99 100 100 101 102 101 98 96 96 98 98 94 88 83 81 82 84 87 89 91 92 92 90 86 84 85 86 86 84 81 80 80 81 82 84 84 86 91 97 103 108 110 110 108 106 104 104 104 103 102 98 91 83 77 74 76 82 91 99 103 104 106 109 108 105 105 106 104
102 103 106 106 104 104 104 103 104 105 105 104 104 106 107 106 105 105 104 103 102 98 96 94 92 88 86 88 92 93 92 88 86 86 87 87 87 85 83 81 79 77 77 77 78 79 79 77 75 76 79 84 88 88 87 90 96 103 107 111 110 108 107 104 101 99 96 92 88 81 74 72 74 78 83 91 98 103 107 108 109 107 105 104 103 97 85
99 98 98 101 101 102 105 106 106 107 108 106 105 104 104 102 100 98 96 95 92 89 85 85 86 87 89 91 94 94 92 90 88 86 83 80 77 73 71 70 70 71 72 73 73 73 72 71 72 74 77 80 81 78 76 78 84 90 94 94 91 90 89 87 84 84 84 80 74 70 69 76 84 89 92 94 98 103 108 110 109 106 102 96 87 75 65
96 92 92 93 94 95 98 100 100 100 100 98 95 94 93 90 86 84 83 83 81 79 78 80 82 84 85 85 84 80 78 76 74 72 69 68 67 67 68 68 68 68 67 65 63 61 59 58 58 59 59 59 59 58 57 58 63 68 72 73 73 74 75 76 78 80 77 72 68 70 79 89 95 97 97 97 101 107 110 107 102 97 90 80 69 62 60
90 86 85 86 86 85 87 88 87 87 86 85 85 84 83 80 78 76 76 77 76 75 74 73 71 70 69 68 66 65 65 66 67 67 67 66 66 65 63 60 57 54 51 48 47 45 45 45 46 47 48 49 50 52 53 55 58 62 67 74 80 81 79 77 77 75 71 72 79 88 97 101 101 99 99 101 104 106 104 99 94 86 76 65 59 56 54
89 85 84 85 84 83 83 83 82 81 80 79 79 79 78 75 74 72 71 70 69 68 67 66 64 64 64 65 66 67 66 66 64 61 59 56 52 48 45 41 39 38 37 37 39 40 42 43 45 46 49 52 54 56 57 57 60 64 70 77 82 81 78 77 78 78 82 91 98 102 104 104 102 101 104 107 108 104 98 91 84 76 67 63 61 55 47
85 83 82 83 82 79 78 78 76 75 74 73 72 71 71 69 67 66 66 68 69 69 69 69 69 68 65 62 60 56 52 48 45 42 39 36 34 33 32 32 32 32 33 34 36 37 40 43 47 51 55 58 59 61 61 61 64 69 73 77 80 83 87 91 93 95 99 102 102 103 105 106 105 106 109 109 104 97 90 84 78 70 65 62 58 50 42
81 80 78 78 77 75 74 74 73 72 71 69 67 67 68 68 69 70 72 74 74 70 65 60 56 52 47 43 40 38 36 35 34 33 33 33 33 34 33 33 33 34 34 34 35 36 38 43 48 53 60 64 66 68 69 69 69 71 74 80 88 94 99 102 103 102 103 103 103 107 110 110 108 107 106 102 96 90 86 80 72 65 58 53 48 43 41
83 82 80 79 78 75 73 73 74 74 75 75 75 76 77 77 75 70 66 62 56 50 44 40 38 37 38 38 38 37 38 39 39 39 41 43 44 45 45 45 46 47 47 48 48 46 46 49 53 58 65 71 72 71 68 66 67 71 77 85 92 97 99 100 101 103 105 107 109 110 110 108 105 101 97 93 90 86 79 69 60 53 49 45 43 42 42
86 86 84 84 85 84 84 84 87 88 88 85 81 76 69 62 55 48 44 41 41 41 41 40 41 43 46 47 47 47 48 50 51 51 53 54 55 55 56 56 57 58 59 60 59 58 58 61 64 68 74 79 79 74 72 75 83 93 99 101 103 106 107 106 105 107 110 112 111 109 106 103 99 95 91 87 81 72 62 54 49 46 43 41 41 43 46
98 98 98 98 97 94 91 88 85 80 74 67 61 56 51 49 48 48 49 51 53 55 56 56 57 57 58 59 59 58 58 58 58 58 58 59 59 59 60 61 62 64 66 66 65 65 68 72 74 78 85 90 90 86 85 87 92 99 104 106 106 108 108 106 105 106 106 104 100 98 96 93 90 84 77 69 60 53 49 46 43 42 41 40 42 47 52
100 97 93 89 85 80 76 72 69 66 65 65 66 67 68 69 70 70 69 69 68 67 66 65 63 62 60 59 58 56 55 54 53 52 53 53 54 55 56 58 60 62 64 66 67 69 73 76 78 81 85 88 89 88 88 87 86 88 91 93 94 92 91 89 87 87 85 83 82 81 79 75 69 62 55 50 47 45 44 42 40 40 40 42 45 51 55
84 83 81 80 80 80 81 82 82 83 85 86 86 85 83 82 79 76 74 71 68 66 64 61 59 57 55 53 52 51 50 49 48 47 47 47 48 48 49 51 53 54 56 58 60 63 65 67 70 72 75 76 77 78 78 76 74 74 74 74 74 74 73 72 72 72 72 71 69 65 60 54 49 46 44 44 43 42 40 40 40 41 42 45 49 54 57
88 91 92 93 94 95 96 97 97 96 94 91 88 85 82 78 76 73 70 67 64 62 60 58 55 53 52 51 49 48 48 46 45 45 45 45 46 47 46 46 47 48 49 50 51 53 55 56 57 58 59 60 62 63 62 61 61 63 64 65 67 68 68 67 66 65 62 57 52 48 45 44 43 43 42 42 41 40 40 40 41 42 45 49 52 56 58
104 103 103 103 103 103 103 102 99 95 91 87 83 79 76 73 71 68 65 63 61 58 56 54 53 51 50 49 48 47 46 45 44 44 44 45 47 49 49 49 50 50 50 50 50 50 51 52 53 53 55 57 59 60 61 62 64 66 68 69 68 66 62 58 54 51 47 45 44 43 43 43 42 41 41 40 40 40 40 41 42 45 47 49 51 52 54
111 112 111 110 109 106 102 98 93 88 84 81 78 75 73 72 70 67 64 61 58 56 54 53 52 51 49 48 46 45 45 45 44 44 46 48 51 53 53 54 54 55 54 54 55 55 56 56 57 58 60 61 62 61 61 60 61 61 61 59 55 52 49 46 44 43 43 43 43 42 42 41 41 41 41 41 41 41 42 42 44 45 45 46 47 47 47
115 114 112 108 105 100 95 90 87 84 81 79 78 76 75 73 71 68 64 61 57 55 54 54 53 52 50 49 47 46 45 45 45 46 48 51 54 55 54 53 52 51 49 48 48 48 48 48 49 50 50 50 50 49 48 47 48 48 47 46 45 44 44 44 43 42 42 42 42 42 42 42 42 42 42 42 43 43 43 44 44 45 45 46 46 46 46
105 104 102 99 97 94 91 89 87 86 84 83 81 79 77 75 72 68 65 61 58 56 55 55 55 54 52 51 50 48 47 46 46 46 49 52 53 52 50 48 45 42 40 39 38 38 39 39 40 41 41 41 41 41 41 42 43 43 43 43 43 42 42 42 42 42 42 43 43 43 44 44 44 44 45 45 45 45 45 45 46 46 47 48 50 52 56
98 97 97 96 95 94 93 92 91 90 88 86 83 80 77 75 73 69 65 62 59 58 57 57 56 56 56 55 54 53 52 51 50 49 50 52 51 49 46 43 40 37 36 36 36 37 38 38 39 39 40 40 41 41 41 42 42 42 42 41 41 41 42 43 43 44 45 45 45 45 46 46 47 46 46 46 46 47 48 49 51 53 56 58 61 63 66
99 98 98 96 96 97 96 94 91 89 86 83 80 78 77 76 74 71 67 64 61 60 59 58 58 58 58 59 58 58 57 57 56 55 54 53 51 48 46 42 39 37 37 37 37 38 38 38 39 39 40 40 40 40 40 40 41 41 42 43 43 44 45 45 45 46 46 46 47 48 47 47 47 47 48 50 52 54 57 60 63 66 68 70 72 74 75
95 95 95 94 93 94 94 90 87 85 83 81 79 78 77 76 74 72 69 66 65 64 62 61 60 61 61 61 60 61 61 61 61 60 59 57 54 51 47 42 39 38 38 37 37 38 38 38 38 39 39 40 40 41 41 42 43 44 44 45 45 46 46 46 47 49 49 50 50 51 51 51 52 54 58 61 64 67 70 73 74 75 76 78 79 82 84
89 89 90 90 90 90 89 87 85 84 83 82 81 80 78 77 75 73 73 72 71 70 68 66 65 65 65 65 64 63 63 64 64 64 63 61 58 54 50 45 41 39 39 38 38 38 39 39 40 40 41 43 43 43 43 44 44 44 45 45 46 46 47 48 49 51 53 55 56 57 58 59 61 63 66 70 73 75 77 79 81 83 85 87 89 90 91
87 87 87 87 87 87 86 86 85 85 84 84 83 81 80 79 78 78 80 82 81 79 75 72 69 68 67 68 69 69 68 67 67 67 67 66 64 59 55 51 46 42 40 41 41 41 41 41 42 43 44 44 45 45 45 45 45 45 46 47 48 49 51 52 54 56 59 61 62 63 64 66 67 69 73 76 79 81 83 85 88 90 92 93 95 96 97
83 84 84 84 85 85 85 85 85 84 84 85 85 84 84 85 86 86 87 88 88 85 80 74 71 68 67 67 70 74 76 76 74 72 72 71 70 67 63 59 54 49 45 44 43 43 43 43 44 45 46 46 47 47 47 47 48 49 50 52 54 56 57 59 61 63 65 66 67 67 68 70 72 75 78 81 83 86 88 90 93 95 97 98 100 101 101
82 83 83 83 84 84 84 85 86 86 86 87 88 89 89 89 88 88 88 88 88 88 84 78 73 70 68 68 70 73 76 80 82 81 79 78 77 75 72 68 63 59 55 51 48 47 46 46 45 45 46 47 48 50 51 52 53 55 57 58 60 62 64 67 69 70 70 70 68 68 69 72 75 80 83 84 86 88 90 93 94 96 97 97 97 97 98
83 83 83 84 85 85 86 86 86 86 85 84 84 85 85 85 85 86 86 86 86 86 85 82 79 76 75 74 73 73 74 78 81 83 84 84 84 83 81 78 74 71 67 64 60 57 54 53 52 51 52 52 53 54 56 58 60 61 63 65 67 69 72 74 76 76 76 74 73 71 72 73 76 80 84 86 88 90 92 95 97 98 99 98 96 93 93
Wind_Speed
65 65 64 63 61 59 55 53 53 54 52 50 48 49 49 46 43 44 43 42 44 46 45 45 45 45 47 49 52 54 55 56 56 55 55 55 55 55 55 56 55 55 55 55 56 56 57 58 58 59 61 62 65 66 67 67 67 67 66 66 65 64 64 63 62 62 63 63 64 64 65 65 66 67 67 67 67 67 67 66 65 65 65 65 66 66 66
65 66 66 65 63 61 57 55 55 54 51 49 49 50 49 45 43 44 42 42 44 45 45 45 45 44 45 46 49 52 55 55 55 54 54 54 54 54 54 54 54 53 53 54 55 56 58 59 60 61 63 65 67 67 67 67 66 65 65 64 63 62 62 61 62 62 63 64 64 65 65 65 65 65 65 65 65 65 64 63 63 63 63 63 64 64 65
66 68 69 66 63 62 58 56 56 54 51 50 50 49 48 45 44 44 43 43 45 45 46 46 45 44 44 46 49 52 54 55 54 54 55 55 55 55 54 54 54 54 54 55 56 58 59 61 62 64 65 66 67 66 66 65 64 63 63 62 61 61 61 62 62 63 64 64 64 64 63 62 62 62 62 62 62 62 61 60 60 61 61 62 63 64 65
68 68 67 63 60 59 56 55 55 54 50 48 48 47 46 46 45 44 43 44 46 46 46 45 43 43 45 47 50 52 53 54 53 53 54 54 55 55 54 55 55 56 57 58 59 60 61 62 63 63 64 64 65 64 64 62 61 60 60 60 61 61 62 62 63 63 63 62 61 60 60 59 59 59 59 59 59 59 59 58 59 60 61 62 63 65 66
66 65 62 60 57 55 54 53 53 50 47 46 47 47 47 45 43 42 42 44 45 45 45 43 41 43 45 47 49 52 52 53 53 53 53 54 55 56 56 57 58 58 59 60 61 61 60 60 60 59 59 60 60 60 59 59 59 59 60 61 61 62 62 61 61 60 59 58 58 57 57 57 57 57 57 58 58 58 58 59 60 61 62 63 65 66 68
63 62 61 59 56 53 52 51 50 47 45 46 47 47 46 44 42 41 42 44 45 44 43 41 41 44 46 47 49 51 51 52 54 53 53 54 55 57 58 59 59 59 60 60 60 60 59 59 58 58 58 58 58 57 57 58 59 60 61 61 60 60 59 58 57 57 56 56 56 55 55 55 56 56 57 58 59 59 60 60 61 62 63 65 67 68 70
63 62 61 58 54 52 51 51 49 46 45 45 46 46 45 43 41 40 41 44 45 45 44 43 42 45 47 47 49 51 51 53 54 54 54 55 56 57 58 59 59 59 58 58 58 57 57 57 57 57 57 58 58 58 59 60 60 60 59 58 57 56 56 55 55 55 55 55 55 55 56 56 56 57 58 59 60 61 61 62 63 64 65 67 68 70 71
62 61 59 55 52 51 50 50 49 47 47 48 48 47 46 45 44 43 43 45 45 46 48 47 45 46 48 48 49 50 51 53 55 54 55 56 56 57 57 57 57 57 57 56 56 56 55 55 55 56 57 59 60 60 59 58 57 56 55 54 54 54 54 54 54 55 55 55 56 56 57 57 58 58 59 60 61 62 63 63 64 65 66 68 70 71 72
60 58 55 53 52 51 50 50 49 48 49 49 49 48 47 46 45 45 45 46 46 49 53 50 46 47 48 47 47 49 52 55 56 55 55 55 56 56 56 55 55 55 55 56 55 55 54 54 55 56 58 59 59 58 56 55 54 53 53 53 54 54 54 54 55 56 56 57 57 58 58 58 59 59 60 61 62 63 64 64 65 66 68 69 71 72 73
57 56 53 51 50 50 50 50 50 49 49 48 47 46 45 45 46 46 46 46 47 51 54 51 47 46 45 43 44 49 54 56 55 54 53 53 54 55 54 54 54 54 54 54 54 54 54 55 56 57 58 57 56 54 53 52 53 53 53 54 54 54 55 56 56 57 57 57 58 58 59 59 60 61 61 62 63 64 64 65 66 68 69 71 72 72 73
54 52 50 50 49 49 49 50 49 49 48 46 45 45 45 46 47 47 47 46 48 52 54 52 48 43 39 40 44 49 55 55 52 51 50 51 52 53 52 52 52 52 53 53 53 54 55 55 55 55 54 54 54 53 53 53 53 54 54 55 55 56 56 57 57 58 58 59 59 60 60 61 61 62 63 63 64 65 66 67 68 69 70 71 72 73 74
50 49 48 48 47 46 47 47 47 45 45 45 45 44 46 48 49 49 48 48 49 52 54 52 47 40 37 40 44 49 53 53 49 48 49 50 51 51 51 51 50 50 50 50 51 52 52 52 52 52 53 53 53 53 53 53 53 54 54 55 55 56 57 58 58 59 60 60 61 62 62 63 63 64 64 64 65 66 67 68 69 70 70 71 72 73 74
48 47 47 46 45 45 45 45 44 45 46 47 45 46 48 51 50 49 48 48 49 51 52 50 44 39 38 42 45 48 51 51 49 49 49 50 50 49 49 49 49 49 49 48 49 49 50 50 51 52 53 53 53 53 53 53 54 54 55 55 56 57 58 59 60 60 61 62 62 63 63 64 64 65 65 66 67 67 68 69 70 70 71 71 72 73 74
47 47 47 46 45 45 45 44 45 48 49 48 47 48 50 50 49 48 47 48 48 49 50 48 44 40 41 44 46 47 48 48 47 47 48 48 47 47 47 47 48 48 48 47 48 49 50 50 51 52 52 52 53 53 53 53 55 55 55 56 57 58 59 60 60 61 61 62 62 63 63 64 64 65 66 66 67 68 69 70 70 70 71 71 72 73 75
47 47 47 46 45 45 46 47 48 50 50 49 48 49 49 49 49 47 46 47 48 48 48 46 45 45 46 46 45 44 44 45 46 45 46 45 45 46 46 46 47 48 48 47 48 49 49 50 50 51 52 52 53 53 53 55 56 56 56 57 58 59 60 61 61 61 62 62 63 63 64 64 65 65 66 67 68 69 69 70 70 70 70 71 73 74 76
50 50 49 47 46 46 47 49 50 51 51 50 49 49 48 48 48 47 47 48 48 48 47 46 46 47 48 46 44 42 42 43 44 44 45 45 46 47 47 47 48 48 48 48 49 49 49 50 51 51 52 52 53 53 55 56 58 58 59 60 60 61 62 62 62 62 63 64 64 64 65 65 65 66 67 67 68 69 70 70 70 70 71 72 74 76 78
49 48 46 45 45 46 48 50 51 51 50 49 48 47 47 48 47 47 48 49 48 48 48 47 47 47 47 46 44 43 42 42 43 45 46 46 48 48 48 48 49 49 49 49 50 49 50 51 52 52 53 53 54 55 58 59 60 61 62 62 63 64 64 63 63 64 64 65 65 65 65 65 66 66 67 68 68 69 69 70 70 71 72 74 76 77 78
47 46 46 45 46 47 50 52 51 50 49 48 46 46 48 48 48 48 49 48 48 48 48 47 47 47 46 46 45 44 43 43 44 46 47 48 49 49 49 49 49 49 49 49 49 50 51 52 53 54 55 56 57 59 61 62 63 63 64 64 65 65 65 64 64 65 65 65 65 65 65 66 66 66 67 68 69 69 69 70 71 72 74 75 76 76 75
47 47 47 47 48 49 50 50 49 48 47 46 46 47 48 48 48 48 48 48 48 48 48 47 47 47 47 47 47 46 46 46 47 49 49 50 50 49 49 49 49 48 48 48 49 51 52 54 56 57 58 59 60 62 63 64 64 64 64 65 66 65 65 65 65 66 65 65 65 66 66 66 66 66 67 68 69 69 69 70 71 73 73 74 74 73 71
48 47 47 47 49 49 49 48 48 47 46 47 47 48 48 48 49 49 48 48 48 48 48 48 49 49 49 49 49 49 48 48 48 49 50 50 50 49 49 50 49 48 48 49 51 53 55 58 59 60 61 62 63 64 65 64 64 64 64 65 65 64 64 65 66 66 66 66 66 66 66 66 66 66 67 68 69 69 70 71 71 72 72 72 71 69 67
47 46 47 48 49 49 49 48 48 48 48 49 49 48 48 48 48 49 48 48 48 49 50 50 50 50 50 50 50 50 48 48 48 48 49 50 50 50 51 51 51 50 51 52 53 56 59 61 62 63 64 64 65 66 66 65 64 64 64 64 63 63 64 65 65 66 66 66 66 66 66 66 66 67 67 68 68 69 70 70 70 70 69 68 67 65 63
46 46 48 49 49 50 49 49 48 49 49 48 48 47 46 47 48 49 48 48 49 50 51 51 51 51 52 52 51 51 49 49 49 48 49 51 51 52 53 54 53 53 53 54 56 59 63 65 65 66 66 66 67 67 66 65 65 64 64 63 63 63 64 65 65 66 66 66 67 66 66 66 67 67 67 67 68 68 68 68 68 67 65 64 63 61 60
47 48 49 49 49 49 49 48 47 48 48 47 47 46 46 46 48 49 49 49 50 50 51 52 52 52 52 52 51 51 50 50 50 50 52 53 54 54 56 56 57 56 56 57 60 63 66 68 68 68 68 68 67 67 66 66 65 65 64 63 63 63 65 65 65 66 66 67 67 66 66 66 66 66 66 67 67 66 64 64 63 62 61 60 59 59 59
47 48 49 49 48 48 48 48 48 48 48 48 47 47 47 48 50 50 50 50 50 51 52 52 52 52 53 53 52 51 51 52 53 54 56 57 58 58 59 60 60 60 60 61 63 66 69 70 70 70 69 69 68 67 66 66 65 64 63 63 63 64 65 66 66 66 66 66 66 66 65 65 65 66 66 64 62 60 59 59 59 58 58 58 58 59 60
47 48 49 48 48 48 48 48 48 49 50 49 49 49 50 50 51 52 51 51 51 52 53 54 54 54 54 54 54 54 54 55 57 59 59 60 61 62 63 63 63 63 64 65 67 69 70 71 71 70 70 70 69 68 67 66 65 63 63 63 64 65 66 66 66 66 66 66 66 66 66 66 65 64 61 57 55 55 56 57 57 57 58 59 60 61 61
48 48 48 48 48 49 49 49 49 50 50 50 50 50 51 51 52 52 53 53 53 54 54 55 56 57 56 56 57 58 59 60 61 62 62 63 63 64 65 66 67 67 68 69 69 71 72 72 72 71 70 70 68 67 66 65 64 63 63 64 65 66 66 67 66 66 66 66 66 66 66 65 62 58 54 51 51 53 55 56 57 58 59 60 60 60 60
49 49 49 49 50 51 51 51 51 52 52 51 52 52 53 53 54 54 54 55 55 56 56 58 58 58 58 59 61 63 65 65 65 65 65 65 66 67 68 69 70 70 70 70 71 72 73 73 71 70 69 68 67 67 66 65 64 64 64 65 66 67 67 67 67 67 66 65 65 64 63 60 55 51 49 50 51 53 54 56 57 58 59 59 59 58 59
50 51 51 52 52 53 52 53 54 55 55 54 55 55 56 56 56 56 56 57 58 59 59 59 60 61 61 62 64 67 68 68 68 68 68 69 69 70 71 71 72 72 71 71 72 72 72 71 70 68 68 67 67 67 66 65 65 65 65 66 67 67 67 67 66 65 64 63 62 60 57 53 50 50 50 51 52 53 55 56 57 57 57 57 58 58 58
52 53 53 53 54 54 54 55 56 57 57 56 57 58 58 58 58 59 59 60 61 62 61 61 62 63 64 65 67 69 70 70 71 71 71 72 72 73 73 72 72 72 71 70 70 70 70 70 69 68 68 68 68 68 66 64 63 64 64 65 65 65 64 64 62 61 60 59 57 54 51 50 50 51 52 52 53 54 55 56 56 56 57 57 57 57 56
53 53 53 54 55 55 55 56 57 58 58 58 59 59 60 60 61 61 61 62 63 64 64 64 65 66 67 69 70 71 72 72 73 74 73 73 73 73 72 71 71 70 70 69 68 68 68 67 66 65 64 64 64 63 62 60 59 60 60 60 60 60 60 59 58 57 56 55 53 51 50 51 52 53 53 53 54 54 55 55 55 56 56 56 56 55 56
53 54 53 54 55 55 55 57 58 58 59 59 60 60 62 62 63 63 63 64 65 66 67 68 69 69 70 71 72 72 72 72 73 72 71 71 70 70 69 69 68 67 65 64 63 63 62 61 59 58 58 57 57 57 56 55 54 55 55 55 55 55 56 56 55 54 53 51 51 51 51 52 53 54 54 54 54 54 54 54 55 56 56 56 55 55 55
54 54 54 54 56 56 57 58 59 60 61 61 62 62 64 64 65 65 65 66 67 68 69 70 70 70 70 70 69 69 69 69 69 68 67 66 65 64 63 63 61 60 58 57 57 56 55 54 53 52 52 51 51 51 51 51 50 50 51 51 52 53 54 53 52 51 50 50 51 51 53 54 54 55 55 55 55 54 54 55 56 56 56 56 56 57 55
56 56 56 56 58 59 59 60 61 61 63 64 64 64 65 66 66 65 65 66 67 68 68 68 67 67 66 65 65 65 64 63 62 61 60 59 58 57 56 55 54 53 52 51 51 50 50 49 49 48 48 48 48 49 49 49 48 48 49 49 50 50 50 50 49 49 49 50 51 53 54 55 55 54 54 54 54 54 55 56 56 56 56 56 57 56 55
57 57 58 58 59 60 60 61 61 62 63 64 64 63 63 64 63 62 61 62 64 65 64 62 62 61 60 60 59 58 58 57 56 55 54 53 53 52 52 51 49 48 48 47 46 46 45 45 45 45 46 47 47 48 48 48 48 47 47 47 47 48 48 48 48 48 49 51 52 54 54 54 54 53 53 53 54 54 55 56 56 56 55 55 55 54 54
56 57 58 58 59 60 59 59 59 60 60 60 60 59 59 60 59 58 57 57 58 59 58 56 55 54 54 54 54 53 52 52 51 50 50 49 49 49 48 47 46 45 45 44 44 43 43 42 43 43 44 46 47 48 48 48 47 47 46 46 47 47 48 48 47 48 49 51 52 53 53 52 52 52 52 53 54 55 55 55 55 54 53 53 53 53 52
55 55 55 55 56 57 56 56 56 57 58 57 57 57 56 56 55 54 52 52 52 53 52 51 50 49 49 49 50 49 48 48 48 47 47 47 47 46 46 45 44 43 43 43 42 42 41 40 41 41 42 45 47 47 46 46 45 45 46 46 47 48 48 48 48 49 50 51 51 51 51 51 52 52 53 54 54 54 54 53 52 52 51 51 51 51 50
53 53 53 54 54 55 55 54 54 54 54 53 52 52 51 50 49 48 48 47 47 48 48 47 47 46 46 46 46 46 46 45 45 45 45 45 45 45 45 44 43 43 43 43 42 41 40 40 40 40 41 44 46 46 45 45 44 44 45 46 47 47 47 47 47 48 49 49 49 50 50 51 52 53 53 53 52 52 51 51 50 50 50 49 48 47 47
51 51 51 51 51 51 50 49 49 48 47 46 46 46 45 45 45 45 45 45 44 44 44 45 44 44 44 44 44 43 43 43 43 43 43 43 43 43 43 43 42 42 42 42 41 40 40 40 40 41 42 43 44 45 45 44 44 43 43 44 45 45 45 44 45 46 47 48 48 49 50 51 51 51 50 50 49 49 49 49 48 48 48 47 45 44 42
47 46 46 46 45 44 44 44 43 43 42 42 42 43 43 43 42 42 42 42 42 41 42 42 42 42 41 41 41 41 41 41 41 41 41 42 42 42 43 42 42 42 42 41 40 40 39 39 40 40 41 42 42 42 43 43 42 41 41 42 43 44 45 45 45 46 47 48 49 49 49 49 48 48 47 47 47 47 47 47 47 46 45 44 43 41 39
43 43 43 42 42 42 41 41 41 41 41 40 40 40 40 40 39 39 39 39 39 38 39 39 39 39 39 39 39 39 40 40 40 40 40 41 41 42 42 42 42 42 42 41 40 40 40 40 41 41 41 41 42 43 43 43 42 42 42 43 44 45 46 46 46 46 47 47 47 46 46 46 45 45 46 46 46 46 46 45 44 43 42 41 40 38 37
42 42 42 41 41 40 40 39 39 39 38 38 37 37 37 37 37 37 37 37 37 37 37 37 38 38 38 38 38 38 38 39 39 39 39 39 39 40 40 40 40 41 41 41 40 40 40 41 41 41 41 42 42 43 43 42 42 43 44 45 45 46 46 45 45 44 44 44 44 44 44 44 44 44 45 45 45 44 43 42 41 41 40 39 38 36 35
42 41 41 40 39 38 38 37 36 36 35 35 35 35 35 35 35 36 36 36 36 36 36 37 37 38 38 37 37 37 37 37 38 38 38 38 38 38 38 38 39 39 39 39 39 39 40 40 40 40 41 41 42 43 42 41 41 42 43 44 43 43 43 43 42 42 41 42 42 43 43 43 44 44 43 43 42 41 41 40 39 38 37 37 36 35 35
38 38 37 37 36 35 35 34 34 34 34 34 34 34 34 35 36 36 36 37 37 37 37 37 37 37 37 37 37 37 36 36 36 36 36 36 36 36 37 37 37 38 38 38 38 38 38 38 38 39 39 39 40 40 39 38 37 39 40 40 40 39 39 40 40 40 40 41 42 42 42 42 42 42 41 41 40 39 38 37 37 36 36 35 35 35 34
34 34 34 34 33 33 33 33 33 33 34 34 35 35 36 36 37 38 38 38 38 38 37 37 37 37 36 36 36 36 36 36 36 35 35 35 35 35 35 36 36 36 36 35 35 35 35 35 35 35 35 36 36 35 34 34 35 36 36 37 37 37 38 38 39 39 40 40 41 41 41 40 40 40 39 38 38 37 36 36 35 35 35 34 34 33 33
33 33 33 34 34 34 34 34 34 35 36 36 37 37 38 38 39 39 39 39 40 39 39 38 37 37 36 36 36 35 35 35 36 35 35 34 34 34 34 33 33 32 33 33 33 33 33 33 32 33 33 33 33 32 32 32 33 34 35 35 36 36 37 37 38 38 39 39 39 39 39 38 38 37 36 36 35 35 34 34 34 34 34 34 33 33 33
35 35 36 36 36 36 36 36 37 37 38 39 39 40 40 40 41 41 41 41 41 41 40 39 38 37 36 36 35 35 35 35 35 35 35 35 35 34 33 32 31 31 31 31 31 31 32 31 31 31 31 31 31 32 31 32 32 33 34 34 35 35 36 36 37 37 37 37 37 37 36 36 35 34 34 33 33 33 33 33 33 34 34 34 34 34 34
38 38 38 39 39 39 39 39 39 40 41 41 42 42 42 42 42 42 42 43 42 42 42 41 39 38 37 36 36 35 34 35 35 35 35 36 36 35 34 32 31 31 31 31 31 31 31 31 30 30 31 31 31 31 31 32 32 32 33 34 34 34 35 35 35 35 35 35 35 34 34 33 33 32 32 32 32 32 33 33 34 34 34 34 34 34 34
40 40 41 41 41 41 41 42 42 42 43 44 44 44 44 44 44 44 44 44 44 44 43 42 41 39 38 37 36 35 35 34 35 35 35 36 36 36 35 33 32 31 31 31 31 31 30 30 30 30 30 31 31 31 32 32 32 32 33 33 34 34 34 34 34 34 34 34 33 33 33 32 32 32 32 32 33 33 33 33 33 34 34 34 34 34 35
42 43 43 43 43 44 44 44 44 44 44 45 45 46 45 45 45 45 45 45 45 45 44 43 41 39 37 36 35 35 35 35 34 35 35 36 36 36 35 34 32 31 30 31 31 31 31 30 30 30 30 31 32 32 33 33 33 33 33 34 34 34 34 34 34 34 34 33 33 33 33 33 33 33 33 33 33 33 33 33 34 34 35 35 35 36 36
44 45 45 45 45 45 46 46 46 46 46 46 46 46 46 46 46 45 45 45 45 45 44 43 41 39 36 35 34 34 34 35 35 35 35 35 36 36 36 35 34 32 31 31 32 32 32 32 31 31 31 32 33 34 34 34 34 35 34 34 34 34 34 34 34 34 34 34 33 33 33 33 33 34 34 34 34 34 34 34 35 35 36 36 37 37 38
46 46 46 46 46 47 47 47 47 47 47 47 47 47 47 46 46 45 45 44 44 44 43 42 40 38 36 34 33 33 33 34 35 35 35 35 35 36 37 37 36 34 33 33 33 34 34 34 34 33 33 33 34 35 35 36 36 36 36 36 35 35 35 35 35 35 35 34 34 34 34 34 35 35 35 35 35 35 36 36 37 37 38 38 38 38 39
45 46 46 47 47 47 47 48 48 48 48 48 47 47 46 46 45 45 44 43 42 42 41 40 39 38 36 35 34 33 33 33 33 34 35 35 35 36 37 38 37 37 36 35 35 36 36 37 36 36 35 35 36 36 36 37 37 37 37 37 37 36 36 36 36 36 36 36 36 36 36 36 36 36 37 37 37 38 38 38 39 39 40 41 41 41 41
Wind_Direction
208 212 213 213 215 215 216 219 222 224 226 230 232 235 236 236 237 239 237 237 240 242 243 243 242 241 240 240 244 247 248 249 250 251 252 254 255 255 255 256 256 257 258 259 261 263 264 265 266 267 269 270 271 272 274 275 277 278 280 281 283 284 284 285 285 286 286 287 289 290 291 292 293 293 294 295 295 296 297 298 298 298 299 300 301 302 304
209 213 214 213 214 215 214 217 221 223 224 229 232 234 237 237 237 239 238 237 240 242 243 244 243 242 242 242 244 246 248 249 250 250 251 252 254 256 257 257 258 258 259 259 261 262 263 264 266 267 268 269 271 272 274 276 278 279 281 282 283 284 284 285 286 287 288 289 290 291 292 293 293 294 294 295 296 296 297 298 299 299 300 302 303 304 305
209 213 215 214 215 216 215 216 220 221 221 225 230 232 236 237 237 238 238 238 240 241 242 242 242 242 242 242 242 243 245 248 249 250 250 251 253 255 257 258 259 260 260 260 260 261 263 264 266 268 269 270 272 274 275 277 278 279 281 282 282 283 284 286 286 287 288 289 291 292 293 293 294 294 295 295 296 297 298 299 300 301 303 304 305 305 306
210 214 216 216 218 220 219 219 222 223 222 224 229 232 234 236 237 238 239 240 241 241 241 242 243 242 241 242 243 243 245 247 248 249 251 253 254 255 257 259 260 261 261 262 262 263 265 267 268 270 271 272 274 274 275 276 278 279 280 282 283 284 285 286 287 289 290 291 292 293 293 294 295 295 296 296 297 298 300 301 302 303 304 305 305 305 306
213 216 218 218 219 222 224 224 225 226 224 225 228 232 233 235 237 238 240 242 242 242 243 244 245 245 243 242 243 245 246 247 249 249 251 252 254 255 257 259 260 262 263 264 265 267 268 269 271 272 273 274 274 275 275 276 278 279 281 283 285 286 287 288 289 290 291 292 293 293 294 295 295 296 297 298 299 300 302 303 304 304 305 305 305 305 306
215 216 218 218 217 219 223 225 226 227 226 226 229 232 234 235 236 237 240 242 244 243 243 243 245 246 245 243 243 244 245 247 249 250 251 252 254 256 257 259 261 263 265 266 268 269 270 271 272 273 274 274 274 275 277 279 281 282 284 285 287 287 288 289 290 291 292 292 293 294 295 296 297 298 298 299 300 301 302 303 304 304 304 305 305 306 308
214 215 217 218 216 216 220 223 224 225 227 228 230 233 237 238 238 238 240 243 246 246 244 241 241 244 244 243 244 245 246 247 249 251 252 254 256 257 259 261 262 264 265 267 268 269 270 271 272 273 273 273 275 277 280 282 283 284 285 286 287 287 289 290 290 291 292 293 294 294 295 297 297 298 299 300 301 301 302 303 303 304 305 305 306 307 308
213 214 215 215 215 215 218 222 223 222 224 226 227 230 234 237 238 238 239 241 243 246 246 241 238 240 241 242 244 247 249 250 250 251 253 255 257 259 260 261 263 264 265 266 267 268 269 270 271 272 273 275 277 280 281 283 284 285 285 286 287 288 289 290 290 291 292 293 294 295 296 297 298 298 299 300 300 301 302 303 303 304 304 305 306 307 308
212 213 213 213 213 213 216 220 222 223 224 225 227 229 232 235 238 239 240 241 242 244 246 245 241 241 242 243 245 248 250 251 252 253 255 256 258 259 261 261 262 263 264 266 267 269 270 271 273 275 277 279 280 281 283 283 284 285 285 286 287 288 289 289 290 291 292 293 294 295 296 297 298 298 299 300 300 301 302 302 303 303 304 304 305 307 308
212 212 211 211 212 213 216 219 222 223 225 226 228 231 234 236 239 241 242 244 245 246 249 249 247 245 246 247 246 245 247 250 253 255 257 258 259 260 261 262 263 264 265 266 268 270 271 273 275 276 278 279 280 281 282 283 283 284 285 285 286 288 288 289 290 291 292 293 294 295 296 297 298 299 299 300 300 301 301 301 301 302 303 304 305 307 308
213 212 210 210 212 213 216 220 222 224 227 228 228 231 235 237 239 241 242 243 245 247 249 250 249 248 248 248 245 244 247 251 254 257 258 258 259 260 262 263 264 266 267 269 270 271 272 273 274 275 276 278 279 280 281 282 283 284 285 286 287 287 288 289 290 291 292 293 294 295 297 298 298 298 299 299 299 300 299 300 301 302 303 304 305 307 308
213 212 212 212 212 213 217 222 225 227 230 230 230 231 235 238 240 241 242 243 246 248 250 251 251 250 250 248 245 245 249 254 256 257 257 257 258 261 263 265 267 268 269 270 271 271 272 273 274 275 276 278 279 281 282 283 284 285 285 286 287 288 289 290 291 292 293 294 295 296 297 297 297 298 298 298 298 298 299 299 301 302 303 304 305 306 307
213 212 212 213 213 215 218 222 225 229 230 231 231 232 235 238 240 242 243 244 246 249 252 253 254 253 252 251 247 247 249 253 255 257 257 259 261 263 265 267 268 269 269 270 271 271 272 274 275 276 278 279 281 282 283 284 285 285 286 287 288 288 289 290 291 292 293 294 295 296 296 297 297 297 297 297 297 298 298 299 300 301 303 304 305 306 307
213 213 212 212 213 215 219 222 224 227 229 229 230 232 235 238 241 243 244 246 248 250 253 255 257 256 254 250 249 249 251 253 255 257 258 260 262 264 265 266 267 268 269 270 271 272 274 275 276 278 279 281 282 283 284 285 285 286 286 287 287 288 289 290 290 292 293 294 295 296 296 296 297 297 297 297 297 297 298 299 300 302 303 304 305 305 306
214 215 214 213 213 216 219 221 223 227 228 229 231 233 236 239 241 243 245 247 248 249 252 253 254 254 253 251 251 252 254 255 256 257 259 260 261 261 262 263 264 266 268 270 271 273 274 276 277 278 280 281 283 284 285 285 285 286 287 287 288 288 289 289 291 292 293 294 295 295 296 296 297 297 296 296 297 297 298 299 301 302 303 304 304 305 305
213 214 214 213 213 216 220 222 224 226 229 230 232 235 237 240 242 244 245 246 247 248 250 250 250 252 254 254 254 254 253 254 255 256 257 258 258 259 260 262 264 266 268 269 270 272 273 275 277 278 280 281 283 284 285 286 286 287 287 287 288 288 289 290 292 293 293 294 295 296 296 297 296 296 296 296 296 297 298 300 301 302 303 303 304 305 306
213 215 215 214 215 218 222 224 225 227 229 231 234 237 240 242 243 244 244 246 247 248 250 250 251 252 254 255 255 254 253 253 253 255 256 256 258 259 261 263 264 266 267 269 270 272 274 275 277 278 280 282 284 286 287 287 287 287 287 288 288 288 289 291 292 292 293 294 295 296 296 296 296 295 295 295 296 297 298 300 302 302 302 303 304 306 307
214 216 217 217 218 220 223 226 226 228 231 233 236 239 241 242 243 244 245 246 247 248 250 251 251 252 253 254 254 254 254 253 254 256 257 258 259 261 262 263 264 265 267 269 271 273 274 276 277 279 282 285 288 289 289 288 288 288 288 288 288 288 289 291 291 292 292 293 294 295 295 295 295 295 295 295 295 297 299 300 301 301 302 304 305 306 307
216 217 218 220 222 223 225 227 229 230 233 235 237 239 241 243 244 245 246 247 248 249 250 251 252 253 254 255 255 255 254 255 256 257 258 259 261 262 263 264 265 267 268 271 273 274 276 277 279 282 285 287 289 289 288 288 288 288 288 288 287 288 289 289 290 290 291 292 293 293 293 294 294 294 294 294 296 298 299 300 300 301 302 303 304 305 305
218 219 219 221 224 225 227 229 231 233 235 237 238 239 240 242 244 246 247 249 250 251 251 252 253 255 256 257 257 257 257 257 258 259 261 262 263 264 265 266 268 269 271 273 275 276 277 279 281 283 285 287 288 288 288 288 288 288 288 287 287 288 288 288 288 289 290 291 291 292 292 292 292 292 293 295 297 298 299 299 300 301 301 302 302 303 304
220 220 221 222 225 227 229 231 233 235 236 237 239 240 241 244 246 247 248 249 251 252 253 254 255 256 257 257 258 259 259 259 260 262 263 264 265 266 267 268 269 271 273 275 276 277 278 279 281 283 285 287 288 288 288 288 288 288 287 287 287 287 287 287 287 288 289 289 290 290 290 291 291 293 294 296 297 297 298 299 299 299 300 300 302 303 305
219 220 222 223 225 227 230 231 234 236 238 239 241 243 244 246 248 249 249 250 252 253 255 256 256 257 258 258 259 260 262 263 264 265 266 266 267 268 269 270 271 273 275 276 277 278 278 279 281 283 285 287 287 287 288 287 287 286 286 286 286 286 285 285 286 287 288 288 288 289 289 290 292 293 295 295 296 296 297 297 298 298 299 301 303 306 309
219 221 223 224 226 228 231 233 235 238 240 241 242 243 244 245 247 249 250 251 252 254 255 256 257 257 258 259 261 263 264 266 267 267 267 268 269 270 271 272 273 274 276 276 277 277 277 279 282 284 285 286 286 286 286 286 285 284 284 285 285 285 284 285 285 286 286 287 287 288 289 291 292 293 293 294 295 295 296 297 298 300 301 303 305 308 311
222 224 226 227 228 230 233 235 237 239 240 241 241 242 243 244 246 248 250 252 254 255 256 257 258 259 260 262 263 264 266 267 267 267 268 269 270 271 272 273 274 275 276 276 276 277 278 280 282 283 284 284 284 285 285 284 283 283 284 284 284 284 284 284 284 285 285 286 287 288 289 290 291 291 292 293 294 295 296 298 300 301 303 305 308 311 312
225 227 228 229 230 232 234 235 237 239 240 241 242 244 245 247 248 250 251 253 254 255 256 258 259 260 262 263 265 266 266 266 266 267 268 269 271 272 273 274 275 276 277 277 277 278 279 280 281 282 283 283 283 284 283 282 282 283 283 283 282 282 282 282 283 284 285 286 286 287 288 289 290 291 292 293 294 296 298 300 302 304 306 308 310 311 311
227 229 230 231 233 234 235 236 238 239 241 243 245 247 249 250 250 251 253 253 254 255 257 258 260 262 263 265 266 267 267 266 267 268 269 270 271 273 274 275 277 277 277 278 279 279 280 280 281 282 282 282 282 281 281 280 281 281 280 280 280 280 280 281 282 283 284 285 286 286 287 288 290 291 292 294 297 299 301 303 304 306 307 307 308 309 310
229 230 231 232 234 236 237 238 240 242 244 246 248 249 251 252 252 253 254 255 256 257 258 260 262 264 265 267 268 268 269 269 269 270 271 272 273 274 275 276 277 277 278 279 279 279 279 280 280 280 280 280 280 279 278 278 279 279 278 278 278 279 279 280 281 281 282 283 284 285 286 288 291 294 296 298 300 301 302 303 304 304 305 306 308 308 308
232 232 233 234 235 237 239 241 244 245 246 248 250 251 253 254 255 256 257 259 260 261 262 264 265 267 268 268 269 270 271 272 273 274 275 275 276 276 276 277 277 278 278 278 278 278 278 278 279 278 278 278 278 277 276 277 277 277 277 276 276 277 277 278 279 280 281 281 282 284 287 291 295 297 298 299 300 301 301 302 303 304 306 307 306 305 304
236 236 236 237 238 239 241 243 246 248 249 250 252 254 255 256 258 259 260 261 263 264 264 266 267 268 268 269 269 270 272 273 274 275 275 276 276 276 277 277 277 277 277 277 277 277 277 277 277 277 276 276 275 275 275 275 274 274 274 273 274 274 275 276 277 278 279 281 283 287 291 295 296 297 298 299 300 301 302 303 304 305 306 305 304 304 306
241 241 241 242 243 244 245 247 249 251 252 254 255 257 258 259 260 261 262 263 264 265 266 266 267 268 268 269 270 271 272 273 274 274 275 275 276 276 277 277 277 277 277 277 277 277 277 276 276 275 274 274 273 273 273 272 271 271 271 272 273 274 274 275 276 278 280 283 287 291 294 296 296 297 298 299 300 301 302 303 304 304 304 303 304 307 310
245 245 245 246 247 248 249 250 251 253 254 255 257 258 259 260 261 262 263 264 266 267 268 268 269 269 270 271 271 272 273 273 274 274 275 276 276 276 277 277 277 277 277 278 278 277 276 275 274 273 273 272 272 271 271 271 270 269 269 270 271 272 273 275 277 280 283 287 290 292 294 294 295 296 297 299 300 301 302 303 303 302 303 304 306 308 309
248 248 249 250 251 251 252 253 254 255 256 258 258 260 261 262 263 265 266 267 268 269 270 270 271 271 271 272 272 273 273 273 274 274 275 276 276 276 276 276 276 276 276 276 275 274 273 273 272 271 270 270 269 269 269 269 269 269 269 268 268 270 273 276 279 283 286 288 289 291 292 293 294 295 297 298 300 301 301 301 302 303 305 307 308 308 309
250 251 251 252 253 254 255 256 257 258 259 260 261 262 263 265 265 266 268 269 270 270 270 271 271 272 272 272 272 272 273 273 273 273 274 274 274 274 273 273 273 273 273 272 272 271 271 270 270 269 268 268 268 268 269 270 270 270 270 270 271 274 276 279 282 284 286 287 288 289 290 291 292 294 296 298 298 299 300 301 302 304 306 307 307 307 308
251 253 254 254 255 256 257 258 259 261 262 263 264 264 266 267 267 268 269 269 270 270 270 270 271 271 271 271 271 271 271 271 271 271 271 271 270 270 270 270 270 269 269 268 268 268 268 268 268 268 268 268 268 268 269 270 271 272 273 274 276 277 279 280 282 283 284 285 286 287 288 289 291 293 295 296 297 298 300 301 303 304 305 305 305 306 308
253 254 255 256 257 258 259 260 261 263 264 265 266 267 267 268 269 269 269 268 268 269 269 269 269 269 269 270 269 269 269 270 270 269 269 269 269 268 268 268 268 268 267 267 266 266 266 267 267 267 267 267 267 268 269 271 273 275 276 276 277 277 278 280 281 282 283 283 284 286 287 290 291 293 294 295 296 297 299 300 301 302 303 304 305 306 307
255 256 257 258 259 260 261 262 263 264 265 266 267 268 268 268 268 267 267 266 265 266 267 267 267 267 267 268 268 269 269 269 269 269 269 269 269 268 268 268 267 267 267 266 266 266 267 267 267 267 267 267 268 269 271 272 273 273 274 275 276 277 278 280 281 282 282 283 285 286 288 289 290 291 292 294 295 296 298 299 300 301 302 303 304 305 305
256 257 258 259 260 261 262 263 263 264 264 265 265 265 265 265 265 265 264 264 264 264 265 266 266 266 266 267 267 268 268 268 269 269 269 269 269 268 268 268 267 267 266 266 267 267 267 267 267 267 266 266 267 269 270 270 270 270 271 272 274 275 276 277 279 280 281 282 284 285 286 287 288 289 290 292 294 295 297 298 299 300 301 302 303 303 303
256 256 257 258 258 259 260 260 260 261 261 261 261 262 262 263 263 263 263 263 264 264 265 265 266 266 266 267 267 268 268 269 269 268 268 268 268 267 267 267 266 266 265 265 266 266 265 265 265 265 265 265 267 268 270 270 271 271 272 273 274 275 276 277 278 278 279 280 282 282 284 285 286 288 291 292 294 295 296 297 298 299 300 300 301 301 301
253 254 254 255 255 256 256 257 257 258 258 259 259 260 261 261 262 262 263 263 264 264 265 266 267 267 268 268 269 269 270 270 270 269 269 268 268 267 266 266 265 265 265 264 264 264 264 264 263 263 264 265 266 268 269 270 271 272 273 273 274 275 276 277 277 278 279 280 281 283 284 286 288 290 292 293 294 295 296 297 298 298 298 299 299 299 299
250 251 252 252 253 254 254 255 256 257 257 258 258 259 259 260 260 261 262 263 264 265 266 267 269 269 270 270 270 271 271 271 270 270 269 268 268 267 267 266 265 265 265 264 264 263 263 262 262 263 263 264 266 267 269 270 272 273 274 274 275 275 276 277 278 280 281 282 284 286 287 289 290 291 292 293 294 295 295 296 296 297 297 297 297 298 298
249 250 251 252 252 253 253 254 255 255 256 256 256 256 257 258 259 261 262 264 265 267 268 270 271 271 272 272 272 272 272 272 272 271 269 268 267 267 266 266 266 265 265 265 265 264 264 264 264 265 266 266 267 268 269 270 272 273 274 275 275 277 278 280 281 282 284 285 287 288 289 289 290 291 292 292 293 293 294 294 294 294 294 295 295 295 296
249 250 250 250 250 251 251 251 252 252 252 253 254 255 257 259 262 264 266 268 269 271 272 274 275 275 275 274 274 273 273 273 272 271 270 268 267 267 266 266 266 265 266 266 265 265 265 265 265 265 265 266 266 267 268 270 271 273 274 275 276 278 280 281 283 284 285 286 286 287 288 289 289 290 290 290 291 291 292 292 292 293 293 293 294 294 294
246 246 247 247 247 248 248 248 249 250 252 254 256 259 261 264 266 268 270 271 273 274 275 276 276 277 277 276 276 275 275 274 272 271 269 268 267 267 267 267 266 266 266 266 265 265 265 265 265 265 266 266 267 269 270 272 272 273 274 275 277 278 280 281 282 283 283 284 285 285 286 287 287 288 288 289 289 289 289 290 291 292 292 293 294 295 296
243 243 243 244 245 246 247 248 251 254 256 259 261 263 265 267 269 270 272 273 275 275 276 277 278 278 278 278 277 277 277 276 275 272 270 268 267 267 267 268 268 268 268 267 266 266 266 266 266 266 266 267 268 269 270 271 271 272 273 274 275 276 278 279 280 281 282 282 283 284 285 285 286 286 286 287 287 288 289 290 291 291 291 292 293 294 295
242 242 243 244 245 247 249 251 254 257 260 262 264 266 268 269 271 272 273 275 276 277 277 278 279 279 279 278 278 278 278 278 277 275 273 271 270 269 269 269 269 269 269 267 266 265 265 264 264 264 265 266 267 268 268 269 269 270 272 273 274 276 277 278 279 280 281 281 282 283 283 283 284 284 285 286 287 288 289 290 290 291 291 291 292 293 293
243 244 245 246 248 250 252 254 256 259 261 263 265 267 269 271 272 273 275 276 277 278 278 279 279 279 278 278 277 278 278 278 277 276 275 274 272 271 270 270 270 269 267 266 265 264 263 263 263 264 264 265 266 267 267 268 269 271 272 274 275 276 277 278 279 279 280 281 281 281 282 282 283 284 285 286 287 288 288 289 289 290 290 291 292 293 293
246 247 248 250 251 253 255 257 259 261 263 265 267 269 270 272 273 275 276 277 278 279 279 279 280 279 279 278 276 276 276 276 276 275 274 273 272 271 271 270 269 267 266 264 263 263 263 263 263 264 265 266 267 267 269 269 270 272 273 274 275 276 276 277 278 278 279 279 280 280 281 281 282 283 285 286 286 287 288 289 289 290 291 291 292 293 294
249 250 252 253 254 256 258 259 261 263 264 266 268 270 271 273 274 275 276 277 278 279 279 280 280 280 279 278 277 275 274 274 273 273 273 272 271 270 270 269 268 267 266 265 264 264 264 265 265 266 267 268 268 269 270 270 270 271 272 273 274 275 276 276 276 277 278 278 279 279 280 281 282 283 284 285 286 286 287 288 289 290 291 292 292 293 293
251 252 253 254 256 257 259 260 261 263 264 266 268 270 271 272 273 274 275 276 277 278 279 279 280 279 279 277 276 275 274 273 272 271 271 271 271 270 269 269 267 266 266 266 266 265 265 265 266 267 268 269 270 270 271 271 272 273 273 274 275 275 276 276 276 276 277 277 278 279 280 281 281 282 283 284 285 286 286 287 288 289 290 291 292 292 293
251 252 253 254 256 257 259 260 261 263 264 266 267 269 270 271 272 273 274 274 276 277 278 279 280 279 279 277 275 274 272 272 271 271 270 270 270 270 270 269 267 265 264 264 264 265 265 265 265 265 266 268 270 271 273 274 274 275 275 275 275 275 275 276 276 277 277 277 278 278 279 280 281 282 283 283 284 285 285 286 287 287 288 289 290 291 292
251 252 253 255 256 257 259 260 261 262 263 264 265 267 268 269 270 271 272 273 274 276 277 278 279 280 279 278 275 273 271 269 269 269 270 270 270 270 271 270 269 268 265 264 263 264 265 265 265 265 266 267 268 270 272 273 274 275 275 275 275 276 276 277 277 278 278 279 278 279 279 280 281 282 283 283 284 285 285 286 286 287 287 288 288 289 290
251 252 254 255 256 257 258 259 260 261 261 263 264 265 266 268 269 270 271 272 273 274 275 277 278 279 279 279 277 275 273 270 268 268 268 268 268 269 270 270 270 270 268 267 266 266 266 267 267 267 267 268 269 270 271 272 273 274 275 276 277 278 278 279 280 281 281 282 282 282 282 282 283 284 284 285 285 286 286 286 287 287 288 288 289 289 290